Year,Month,Day,Hour,Minute,Value (Times are PST for temperature in C)
2012,07,20,13,25,17.00
2012,07,20,13,26,17.00
2012,07,20,13,27,17.10
2012,07,20,13,28,17.00
2012,07,20,13,29,17.00
2012,07,20,13,30,17.00
2012,07,20,13,31,17.00
2012,07,20,13,32,17.00
2012,07,20,13,33,17.10
2012,07,20,13,34,17.10
2012,07,20,13,35,17.10
2012,07,20,13,36,17.20
2012,07,20,13,37,17.10
2012,07,20,13,38,17.20
2012,07,20,13,39,17.20
2012,07,20,13,40,17.20
2012,07,20,13,41,17.20
2012,07,20,13,42,17.20
2012,07,20,13,43,17.30
2012,07,20,13,44,17.30
2012,07,20,13,45,17.30
2012,07,20,13,46,17.30
2012,07,20,13,47,17.40
2012,07,20,13,48,17.40
2012,07,20,13,49,17.40
2012,07,20,13,50,17.50
2012,07,20,13,51,17.50
2012,07,20,13,52,17.50
2012,07,20,13,53,17.50
2012,07,20,13,54,17.50
2012,07,20,13,55,17.50
2012,07,20,13,56,17.50
2012,07,20,13,57,17.50
2012,07,20,13,58,17.50
2012,07,20,13,59,17.50
2012,07,20,14,00,17.50
2012,07,20,14,01,17.50
2012,07,20,14,02,17.40
2012,07,20,14,03,17.30
2012,07,20,14,04,17.30
2012,07,20,14,05,17.20
2012,07,20,14,06,17.10
2012,07,20,14,07,17.10
2012,07,20,14,08,17.10
2012,07,20,14,09,17.10
2012,07,20,14,10,17.00
2012,07,20,14,11,17.00
2012,07,20,14,12,17.00
2012,07,20,14,13,17.00
2012,07,20,14,14,17.00
2012,07,20,14,15,17.00
2012,07,20,14,16,16.90
2012,07,20,14,17,16.90
2012,07,20,14,18,16.90
2012,07,20,14,19,16.90
2012,07,20,14,20,16.80
2012,07,20,14,21,16.80
2012,07,20,14,22,16.80
2012,07,20,14,23,16.80
2012,07,20,14,24,16.80
2012,07,20,14,25,16.80
2012,07,20,14,26,16.80
2012,07,20,14,27,16.80
2012,07,20,14,28,16.80
2012,07,20,14,29,16.90
2012,07,20,14,30,16.90
2012,07,20,14,31,16.90
2012,07,20,14,32,16.90
2012,07,20,14,33,16.90
2012,07,20,14,34,16.90
2012,07,20,14,35,16.90
2012,07,20,14,36,16.90
2012,07,20,14,37,17.00
2012,07,20,14,38,16.90
2012,07,20,14,39,16.90
2012,07,20,14,40,16.90
2012,07,20,14,41,17.00
2012,07,20,14,42,17.00
2012,07,20,14,43,17.10
2012,07,20,14,44,17.10
2012,07,20,14,45,17.10
2012,07,20,14,46,17.10
2012,07,20,14,47,17.10
2012,07,20,14,48,17.10
2012,07,20,14,49,17.10
2012,07,20,14,50,17.20
2012,07,20,14,51,17.10
2012,07,20,14,52,17.10
2012,07,20,14,53,17.10
2012,07,20,14,54,17.10
2012,07,20,14,55,17.10
2012,07,20,14,56,17.20
2012,07,20,14,57,17.20
2012,07,20,14,58,17.20
2012,07,20,14,59,17.30
2012,07,20,15,00,17.30
2012,07,20,15,01,17.30
2012,07,20,15,02,17.30
2012,07,20,15,03,17.30
2012,07,20,15,04,17.30
2012,07,20,15,05,17.30
2012,07,20,15,06,17.20
2012,07,20,15,07,17.20
2012,07,20,15,08,17.20
2012,07,20,15,09,17.30
2012,07,20,15,10,17.20
2012,07,20,15,11,17.20
2012,07,20,15,12,17.20
2012,07,20,15,13,17.20
2012,07,20,15,14,17.20
2012,07,20,15,15,17.20
2012,07,20,15,16,17.20
2012,07,20,15,17,17.20
2012,07,20,15,18,17.20
2012,07,20,15,19,17.30
2012,07,20,15,20,17.30
2012,07,20,15,21,17.30
2012,07,20,15,22,17.30
2012,07,20,15,23,17.30
2012,07,20,15,24,17.30
2012,07,20,15,25,17.30
2012,07,20,15,26,17.20
2012,07,20,15,27,17.20
2012,07,20,15,28,17.20
2012,07,20,15,29,17.20
2012,07,20,15,30,17.20
2012,07,20,15,31,17.10
2012,07,20,15,32,17.20
2012,07,20,15,33,17.20
2012,07,20,15,34,17.20
2012,07,20,15,35,17.30
2012,07,20,15,36,17.40
2012,07,20,15,37,17.40
2012,07,20,15,38,17.50
2012,07,20,15,39,17.60
2012,07,20,15,40,17.70
2012,07,20,15,41,17.70
2012,07,20,15,42,17.70
2012,07,20,15,43,17.70
2012,07,20,15,44,17.80
2012,07,20,15,45,17.80
2012,07,20,15,46,17.80
2012,07,20,15,47,17.80
2012,07,20,15,48,17.70
2012,07,20,15,49,17.70
2012,07,20,15,50,17.70
2012,07,20,15,51,17.70
2012,07,20,15,52,17.70
2012,07,20,15,53,17.70
2012,07,20,15,54,17.80
2012,07,20,15,55,17.80
2012,07,20,15,56,17.80
2012,07,20,15,57,17.80
2012,07,20,15,58,17.90
2012,07,20,15,59,18.00
2012,07,20,16,00,18.10
2012,07,20,16,01,18.10
2012,07,20,16,02,18.10
2012,07,20,16,03,18.00
2012,07,20,16,04,17.90
2012,07,20,16,05,17.80
2012,07,20,16,06,17.80
2012,07,20,16,07,17.70
2012,07,20,16,08,17.70
2012,07,20,16,09,17.60
2012,07,20,16,10,17.60
2012,07,20,16,11,17.60
2012,07,20,16,12,17.70
2012,07,20,16,13,17.70
2012,07,20,16,14,17.70
2012,07,20,16,15,17.70
2012,07,20,16,16,17.70
2012,07,20,16,17,17.70
2012,07,20,16,18,17.60
2012,07,20,16,19,17.70
2012,07,20,16,20,17.70
2012,07,20,16,21,17.70
2012,07,20,16,22,17.70
2012,07,20,16,23,17.70
2012,07,20,16,24,17.70
2012,07,20,16,25,17.70
2012,07,20,16,26,17.70
2012,07,20,16,27,17.70
2012,07,20,16,28,17.70
2012,07,20,16,29,17.80
2012,07,20,16,30,17.90
2012,07,20,16,31,17.90
2012,07,20,16,32,18.00
2012,07,20,16,33,18.00
2012,07,20,16,34,18.10
2012,07,20,16,35,18.10
2012,07,20,16,36,18.10
2012,07,20,16,37,18.20
2012,07,20,16,38,18.30
2012,07,20,16,39,18.30
2012,07,20,16,40,18.30
2012,07,20,16,41,18.20
2012,07,20,16,42,18.20
2012,07,20,16,43,18.10
2012,07,20,16,44,18.10
2012,07,20,16,45,18.10
2012,07,20,16,46,18.10
2012,07,20,16,47,18.10
2012,07,20,16,48,18.20
2012,07,20,16,49,18.20
2012,07,20,16,50,18.30
2012,07,20,16,51,18.30
2012,07,20,16,52,18.30
2012,07,20,16,53,18.30
2012,07,20,16,54,18.20
2012,07,20,16,55,18.10
2012,07,20,16,56,18.10
2012,07,20,16,57,18.00
2012,07,20,16,58,18.00
2012,07,20,16,59,18.00
2012,07,20,17,00,18.00
2012,07,20,17,01,17.90
2012,07,20,17,02,17.90
2012,07,20,17,03,17.90
2012,07,20,17,04,17.90
2012,07,20,17,05,17.90
2012,07,20,17,06,17.90
2012,07,20,17,07,18.00
2012,07,20,17,08,18.00
2012,07,20,17,09,18.00
2012,07,20,17,10,18.10
2012,07,20,17,11,18.10
2012,07,20,17,12,18.10
2012,07,20,17,13,18.10
2012,07,20,17,14,18.10
2012,07,20,17,15,18.10
2012,07,20,17,16,18.10
2012,07,20,17,17,18.10
2012,07,20,17,18,18.00
2012,07,20,17,19,17.90
2012,07,20,17,20,17.90
2012,07,20,17,21,17.80
2012,07,20,17,22,17.80
2012,07,20,17,23,17.80
2012,07,20,17,24,17.80
2012,07,20,17,25,17.80
2012,07,20,17,26,17.80
2012,07,20,17,27,17.80
2012,07,20,17,28,17.80
2012,07,20,17,29,17.80
2012,07,20,17,30,17.70
2012,07,20,17,31,17.70
2012,07,20,17,32,17.70
2012,07,20,17,33,17.60
2012,07,20,17,34,17.60
2012,07,20,17,35,17.60
2012,07,20,17,36,17.50
2012,07,20,17,37,17.50
2012,07,20,17,38,17.50
2012,07,20,17,39,17.50
2012,07,20,17,40,17.50
2012,07,20,17,41,17.50
2012,07,20,17,42,17.50
2012,07,20,17,43,17.50
2012,07,20,17,44,17.40
2012,07,20,17,45,17.40
2012,07,20,17,46,17.40
2012,07,20,17,47,17.40
2012,07,20,17,48,17.40
2012,07,20,17,49,17.40
2012,07,20,17,50,17.40
2012,07,20,17,51,17.40
2012,07,20,17,52,17.40
2012,07,20,17,53,17.40
2012,07,20,17,54,17.40
2012,07,20,17,55,17.40
2012,07,20,17,56,17.40
2012,07,20,17,57,17.40
2012,07,20,17,58,17.30
2012,07,20,17,59,17.30
2012,07,20,18,00,17.30
2012,07,20,18,01,17.30
2012,07,20,18,02,17.30
2012,07,20,18,03,17.30
2012,07,20,18,04,17.30
2012,07,20,18,05,17.20
2012,07,20,18,06,17.20
2012,07,20,18,07,17.20
2012,07,20,18,08,17.20
2012,07,20,18,09,17.20
2012,07,20,18,10,17.10
2012,07,20,18,11,17.10
2012,07,20,18,12,17.10
2012,07,20,18,13,17.10
2012,07,20,18,14,17.10
2012,07,20,18,15,17.10
2012,07,20,18,16,17.10
2012,07,20,18,17,17.10
2012,07,20,18,18,17.10
2012,07,20,18,19,17.10
2012,07,20,18,20,17.20
2012,07,20,18,21,17.10
2012,07,20,18,22,17.10
2012,07,20,18,23,17.10
2012,07,20,18,24,17.20
2012,07,20,18,25,17.30
2012,07,20,18,26,17.30
2012,07,20,18,27,17.40
2012,07,20,18,28,17.50
2012,07,20,18,29,17.60
2012,07,20,18,30,17.70
2012,07,20,18,31,17.80
2012,07,20,18,32,17.80
2012,07,20,18,33,17.90
2012,07,20,18,34,17.90
2012,07,20,18,35,17.90
2012,07,20,18,36,17.80
2012,07,20,18,37,17.80
2012,07,20,18,38,17.80
2012,07,20,18,39,17.70
2012,07,20,18,40,17.70
2012,07,20,18,41,17.60
2012,07,20,18,42,17.50
2012,07,20,18,43,17.40
2012,07,20,18,44,17.30
2012,07,20,18,45,17.20
2012,07,20,18,46,17.20
2012,07,20,18,47,17.20
2012,07,20,18,48,17.20
2012,07,20,18,49,17.20
2012,07,20,18,50,17.20
2012,07,20,18,51,17.10
2012,07,20,18,52,17.10
2012,07,20,18,53,17.00
2012,07,20,18,54,17.00
2012,07,20,18,55,17.00
2012,07,20,18,56,16.90
2012,07,20,18,57,16.90
2012,07,20,18,58,16.90
2012,07,20,18,59,16.90
2012,07,20,19,00,16.80
2012,07,20,19,01,16.80
2012,07,20,19,02,16.80
2012,07,20,19,03,16.80
2012,07,20,19,04,16.80
2012,07,20,19,05,16.80
2012,07,20,19,06,16.80
2012,07,20,19,07,16.80
2012,07,20,19,08,16.80
2012,07,20,19,09,16.80
2012,07,20,19,10,16.80
2012,07,20,19,11,16.80
2012,07,20,19,12,16.80
2012,07,20,19,13,16.80
2012,07,20,19,14,16.80
2012,07,20,19,15,16.80
2012,07,20,19,16,16.80
2012,07,20,19,17,16.80
2012,07,20,19,18,16.80
2012,07,20,19,19,16.80
2012,07,20,19,20,16.80
2012,07,20,19,21,16.80
2012,07,20,19,22,16.80
2012,07,20,19,23,16.80
2012,07,20,19,24,16.70
2012,07,20,19,25,16.70
2012,07,20,19,26,16.70
2012,07,20,19,27,16.70
2012,07,20,19,28,16.70
2012,07,20,19,29,16.70
2012,07,20,19,30,16.70
2012,07,20,19,31,16.70
2012,07,20,19,32,16.70
2012,07,20,19,33,16.70
2012,07,20,19,34,16.70
2012,07,20,19,35,16.70
2012,07,20,19,36,16.60
2012,07,20,19,37,16.60
2012,07,20,19,38,16.60
2012,07,20,19,39,16.60
2012,07,20,19,40,16.60
2012,07,20,19,41,16.60
2012,07,20,19,42,16.60
2012,07,20,19,43,16.60
2012,07,20,19,44,16.60
2012,07,20,19,45,16.60
2012,07,20,19,46,16.60
2012,07,20,19,47,16.60
2012,07,20,19,48,16.60
2012,07,20,19,49,16.50
2012,07,20,19,50,16.50
2012,07,20,19,51,16.40
2012,07,20,19,52,16.40
2012,07,20,19,53,16.40
2012,07,20,19,54,16.40
2012,07,20,19,55,16.40
2012,07,20,19,56,16.30
2012,07,20,19,57,16.30
2012,07,20,19,58,16.30
2012,07,20,19,59,16.30
2012,07,20,20,00,16.30
2012,07,20,20,01,16.30
2012,07,20,20,02,16.30
2012,07,20,20,03,16.20
2012,07,20,20,04,16.20
2012,07,20,20,05,16.20
2012,07,20,20,06,16.20
2012,07,20,20,07,16.10
2012,07,20,20,08,16.10
2012,07,20,20,09,16.10
2012,07,20,20,10,16.00
2012,07,20,20,11,16.00
2012,07,20,20,12,15.90
2012,07,20,20,13,15.90
2012,07,20,20,14,15.90
2012,07,20,20,15,15.90
2012,07,20,20,16,15.80
2012,07,20,20,17,15.80
2012,07,20,20,18,15.80
2012,07,20,20,19,15.80
2012,07,20,20,20,15.80
2012,07,20,20,21,15.70
2012,07,20,20,22,15.70
2012,07,20,20,23,15.70
2012,07,20,20,24,15.60
2012,07,20,20,25,15.60
2012,07,20,20,26,15.60
2012,07,20,20,27,15.60
2012,07,20,20,28,15.60
2012,07,20,20,29,15.60
2012,07,20,20,30,15.60
2012,07,20,20,31,15.60
2012,07,20,20,32,15.60
2012,07,20,20,33,15.60
2012,07,20,20,34,15.70
2012,07,20,20,35,15.70
2012,07,20,20,36,15.70
2012,07,20,20,37,15.70
2012,07,20,20,38,15.70
2012,07,20,20,39,15.70
2012,07,20,20,40,15.80
2012,07,20,20,41,15.80
2012,07,20,20,42,15.80
2012,07,20,20,43,15.80
2012,07,20,20,44,15.80
2012,07,20,20,45,15.80
2012,07,20,20,46,15.80
2012,07,20,20,47,15.80
2012,07,20,20,48,15.80
2012,07,20,20,49,15.80
2012,07,20,20,50,15.80
2012,07,20,20,51,15.80
2012,07,20,20,52,15.80
2012,07,20,20,53,15.80
2012,07,20,20,54,15.80
2012,07,20,20,55,15.80
2012,07,20,20,56,15.80
2012,07,20,20,57,15.80
2012,07,20,20,58,15.80
2012,07,20,20,59,15.80
2012,07,20,21,00,15.80
2012,07,20,21,01,15.80
2012,07,20,21,02,15.80
2012,07,20,21,03,15.80
2012,07,20,21,04,15.80
2012,07,20,21,05,15.80
2012,07,20,21,06,15.80
2012,07,20,21,07,15.80
2012,07,20,21,08,15.80
2012,07,20,21,09,15.80
2012,07,20,21,10,15.80
2012,07,20,21,11,15.80
2012,07,20,21,12,15.80
2012,07,20,21,13,15.80
2012,07,20,21,14,15.80
2012,07,20,21,15,15.80
2012,07,20,21,16,15.80
2012,07,20,21,17,15.90
2012,07,20,21,18,15.90
2012,07,20,21,19,15.90
2012,07,20,21,20,15.90
2012,07,20,21,21,15.90
2012,07,20,21,22,15.90
2012,07,20,21,23,16.00
2012,07,20,21,24,16.00
2012,07,20,21,25,16.00
2012,07,20,21,26,16.10
2012,07,20,21,27,16.10
2012,07,20,21,28,16.10
2012,07,20,21,29,16.10
2012,07,20,21,30,16.10
2012,07,20,21,31,16.10
2012,07,20,21,32,16.20
2012,07,20,21,33,16.20
2012,07,20,21,34,16.20
2012,07,20,21,35,16.20
2012,07,20,21,36,16.20
2012,07,20,21,37,16.20
2012,07,20,21,38,16.20
2012,07,20,21,39,16.20
2012,07,20,21,40,16.20
2012,07,20,21,41,16.20
2012,07,20,21,42,16.20
2012,07,20,21,43,16.20
2012,07,20,21,44,16.20
2012,07,20,21,45,16.20
2012,07,20,21,46,16.20
2012,07,20,21,47,16.20
2012,07,20,21,48,16.20
2012,07,20,21,49,16.10
2012,07,20,21,50,16.10
2012,07,20,21,51,16.10
2012,07,20,21,52,16.10
2012,07,20,21,53,16.10
2012,07,20,21,54,16.10
2012,07,20,21,55,16.10
2012,07,20,21,56,16.00
2012,07,20,21,57,16.00
2012,07,20,21,58,15.90
2012,07,20,21,59,15.90
2012,07,20,22,00,15.90
2012,07,20,22,01,15.80
2012,07,20,22,02,15.80
2012,07,20,22,03,15.80
2012,07,20,22,04,15.80
2012,07,20,22,05,15.70
2012,07,20,22,06,15.70
2012,07,20,22,07,15.70
2012,07,20,22,08,15.70
2012,07,20,22,09,15.70
2012,07,20,22,10,15.70
2012,07,20,22,11,15.70
2012,07,20,22,12,15.60
2012,07,20,22,13,15.60
2012,07,20,22,14,15.60
2012,07,20,22,15,15.60
2012,07,20,22,16,15.60
2012,07,20,22,17,15.60
2012,07,20,22,18,15.50
2012,07,20,22,19,15.50
2012,07,20,22,20,15.50
2012,07,20,22,21,15.50
2012,07,20,22,22,15.50
2012,07,20,22,23,15.50
2012,07,20,22,24,15.50
2012,07,20,22,25,15.50
2012,07,20,22,26,15.50
2012,07,20,22,27,15.50
2012,07,20,22,28,15.50
2012,07,20,22,29,15.50
2012,07,20,22,30,15.60
2012,07,20,22,31,15.50
2012,07,20,22,32,15.50
2012,07,20,22,33,15.50
2012,07,20,22,34,15.50
2012,07,20,22,35,15.50
2012,07,20,22,36,15.50
2012,07,20,22,37,15.60
2012,07,20,22,38,15.60
2012,07,20,22,39,15.60
2012,07,20,22,40,15.60
2012,07,20,22,41,15.60
2012,07,20,22,42,15.60
2012,07,20,22,43,15.60
2012,07,20,22,44,15.70
2012,07,20,22,45,15.70
2012,07,20,22,46,15.70
2012,07,20,22,47,15.70
2012,07,20,22,48,15.70
2012,07,20,22,49,15.70
2012,07,20,22,50,15.70
2012,07,20,22,51,15.70
2012,07,20,22,52,15.70
2012,07,20,22,53,15.70
2012,07,20,22,54,15.70
2012,07,20,22,55,15.70
2012,07,20,22,56,15.70
2012,07,20,22,57,15.70
2012,07,20,22,58,15.70
2012,07,20,22,59,15.70
2012,07,20,23,00,15.60
2012,07,20,23,01,15.60
2012,07,20,23,02,15.60
2012,07,20,23,03,15.60
2012,07,20,23,04,15.50
2012,07,20,23,05,15.50
2012,07,20,23,06,15.50
2012,07,20,23,07,15.40
2012,07,20,23,08,15.40
2012,07,20,23,09,15.40
2012,07,20,23,10,15.40
2012,07,20,23,11,15.40
2012,07,20,23,12,15.40
2012,07,20,23,13,15.40
2012,07,20,23,14,15.40
2012,07,20,23,15,15.40
2012,07,20,23,16,15.40
2012,07,20,23,17,15.50
2012,07,20,23,18,15.50
2012,07,20,23,19,15.50
2012,07,20,23,20,15.60
2012,07,20,23,21,15.60
2012,07,20,23,22,15.60
2012,07,20,23,23,15.60
2012,07,20,23,24,15.60
2012,07,20,23,25,15.60
2012,07,20,23,26,15.60
2012,07,20,23,27,15.50
2012,07,20,23,28,15.50
2012,07,20,23,29,15.50
2012,07,20,23,30,15.40
2012,07,20,23,31,15.40
2012,07,20,23,32,15.30
2012,07,20,23,33,15.30
2012,07,20,23,34,15.20
2012,07,20,23,35,15.20
2012,07,20,23,36,15.20
2012,07,20,23,37,15.20
2012,07,20,23,38,15.10
2012,07,20,23,39,15.10
2012,07,20,23,40,15.10
2012,07,20,23,41,15.10
2012,07,20,23,42,15.10
2012,07,20,23,43,15.00
2012,07,20,23,44,15.00
2012,07,20,23,45,15.00
2012,07,20,23,46,15.00
2012,07,20,23,47,14.90
2012,07,20,23,48,14.90
2012,07,20,23,49,14.90
2012,07,20,23,50,14.90
2012,07,20,23,51,14.90
2012,07,20,23,52,14.90
2012,07,20,23,53,14.90
2012,07,20,23,54,14.90
2012,07,20,23,55,14.90
2012,07,20,23,56,14.90
2012,07,20,23,57,14.90
2012,07,20,23,58,14.90
2012,07,20,23,59,14.90
